Temperature
22 23 23 23 23 23 23 22 22 22 22 22 22 23 23 22 21 21 21 21 21 20 19 19 18 18 18 18 17 17 17 17 16 16 16 16 16 16 16 16 16 15 15 15
23 22 23 23 23 22 22 22 22 22 22 22 22 22 23 22 21 21 21 21 21 20 19 19 18 18 18 18 17 17 17 17 16 16 16 16 16 16 16 15 15 15 15 15
23 22 22 22 22 22 22 22 22 22 22 22 22 22 23 22 21 20 20 20 20 20 19 19 18 18 18 17 17 17 17 17 16 16 16 16 16 16 15 15 15 15 15 15
22 22 22 22 22 22 22 22 22 22 22 22 22 22 23 22 22 21 20 20 19 19 19 19 18 18 18 17 17 17 17 17 16 16 16 16 16 15 15 15 15 15 15 15
22 22 22 22 22 22 22 22 22 22 22 22 22 22 23 22 22 22 21 19 19 19 18 18 18 18 17 17 17 17 17 17 16 16 16 16 15 15 15 15 15 15 15 15
22 21 22 22 22 22 21 22 21 22 22 21 22 22 22 22 22 21 21 19 19 18 18 18 18 17 17 17 17 17 17 16 16 16 16 16 15 15 15 15 15 15 14 14
21 22 21 21 21 21 22 22 21 21 21 21 21 21 22 22 21 21 20 19 18 18 18 17 17 17 17 17 17 17 16 16 16 16 16 15 15 15 15 15 15 14 14 14
21 21 22 21 22 22 22 22 21 20 21 21 21 21 22 21 20 19 19 18 18 18 17 17 17 16 16 16 16 16 16 16 16 16 15 15 15 15 15 14 14 14 14 14
21 21 21 21 21 21 21 21 21 21 21 21 22 22 21 20 20 19 19 18 18 17 16 16 16 16 16 16 16 16 16 16 15 15 15 15 15 15 14 14 14 14 14 14
21 21 21 20 21 20 21 21 21 20 20 20 21 21 21 20 20 20 19 18 17 16 16 16 15 15 15 15 15 15 15 15 15 15 15 14 14 14 14 14 14 14 14 13
21 21 20 20 20 21 20 20 20 20 20 20 20 21 21 20 20 19 19 18 17 16 16 15 15 15 15 15 15 15 15 14 14 14 14 14 14 14 14 14 13 13 13 13
20 20 20 20 20 19 20 20 20 19 20 20 20 20 20 20 19 18 18 17 16 15 15 15 14 14 14 14 14 14 14 14 14 14 14 13 14 13 13 13 13 13 13 13
19 20 20 20 20 19 19 19 19 20 19 20 19 20 19 19 18 17 17 16 16 15 15 14 14 14 14 14 14 14 14 14 13 13 13 13 13 13 13 13 13 13 13 13
18 20 20 19 20 20 19 19 19 19 19 19 20 20 19 18 18 17 16 16 15 15 14 14 14 14 13 13 13 13 13 13 13 13 13 13 13 13 13 13 13 12 12 12
18 19 19 19 19 19 19 18 18 19 19 19 20 19 19 18 18 17 16 15 15 14 14 14 13 13 13 13 13 13 13 13 12 12 12 12 12 12 12 12 12 12 12 12
18 18 18 18 18 18 18 18 18 18 18 18 18 18 19 17 17 16 15 15 14 14 13 13 13 13 13 12 12 12 12 12 12 12 12 12 12 12 12 12 12 12 11 11
18 18 18 18 18 18 18 19 18 18 18 18 18 18 18 17 16 15 15 14 14 13 13 12 12 12 12 12 12 12 12 12 11 11 11 11 11 11 11 11 11 11 11 11
18 17 18 17 17 17 19 18 17 17 17 17 17 17 16 16 15 14 14 13 13 12 12 12 12 12 12 12 11 11 11 11 11 11 11 11 11 11 11 11 11 11 11 10
17 17 17 17 17 17 18 17 17 17 17 17 17 16 15 14 14 14 13 12 12 12 12 11 11 11 11 11 11 11 11 11 11 10 10 10 10 10 10 10 10 10 10 10
15 16 17 16 16 16 18 17 15 16 16 16 16 15 14 14 15 15 12 12 11 11 11 11 11 11 11 11 11 11 11 10 10 10 10 10 10 10 10 10 10 10 10 10
15 15 16 16 16 17 17 15 15 16 17 15 15 14 14 14 15 13 11 11 11 10 10 10 10 10 10 10 10 10 10 10 10 10 9 9 9 9 9 9 9 9 9 9
16 16 16 16 16 16 15 15 16 16 15 14 14 13 13 13 12 11 11 10 10 10 10 10 10 10 10 10 10 9 9 9 9 9 9 9 9 9 9 9 8 8 8 8
16 16 16 16 16 15 13 14 13 13 13 13 13 12 12 11 11 10 10 10 9 9 9 9 9 9 9 9 9 9 9 9 9 9 9 8 8 8 8 8 8 8 8 8
15 13 14 15 15 14 13 12 12 12 12 12 11 11 11 11 10 10 9 9 9 9 9 9 9 9 9 9 9 8 8 8 8 8 8 8 8 8 8 8 8 8 7 7
14 13 14 14 14 13 12 12 12 11 11 11 10 10 10 10 10 9 9 9 8 8 8 8 8 8 8 8 8 8 8 8 8 7 8 8 8 8 8 7 7 7 7 7
13 13 14 14 14 14 13 11 11 11 10 10 10 10 10 9 9 9 8 8 8 8 8 8 8 8 7 7 7 8 8 7 7 7 7 7 7 7 7 7 7 7 7 7
Wind_Speed
2 4 4 3 2 2 3 3 2 1 1 3 5 5 4 4 5 6 6 6 6 5 4 4 4 4 4 4 4 4 4 4 4 3 2 2 2 2 1 1 1 1 1 1
4 3 1 1 2 4 4 3 3 2 1 4 4 5 4 3 4 5 6 6 6 5 4 4 4 4 5 4 4 4 4 4 4 2 2 2 2 1 1 1 1 1 1 1
4 1 2 4 4 4 4 3 3 3 3 4 5 4 3 2 3 3 4 5 5 5 5 5 5 5 5 4 4 3 4 3 3 3 2 2 2 1 2 1 1 1 1 1
2 2 3 4 4 3 3 2 3 4 6 3 4 4 2 2 2 3 3 4 5 4 5 5 5 5 5 5 4 4 4 3 3 3 3 3 2 2 2 1 1 1 1 1
2 2 3 4 3 3 2 1 3 5 6 6 5 5 2 1 2 1 1 2 3 4 5 5 5 5 4 4 4 3 3 4 3 3 3 4 3 2 1 1 2 2 1 1
2 2 2 2 1 2 2 2 3 5 6 6 4 5 3 1 2 2 1 1 2 3 4 5 4 4 4 3 3 3 3 3 3 4 4 4 4 3 2 2 2 2 1 2
4 4 2 2 3 4 4 5 4 4 5 3 1 4 2 2 2 3 2 2 1 1 3 4 4 4 4 4 4 4 4 3 3 3 4 4 4 4 3 3 2 2 2 2
5 5 3 3 4 5 5 6 5 4 4 3 3 5 1 2 2 2 1 1 1 1 1 2 3 4 4 4 4 4 4 4 3 3 3 3 4 3 3 3 3 3 2 3
4 3 2 0 1 3 4 4 4 6 6 6 5 3 2 0 0 1 1 1 2 2 1 1 2 2 3 4 4 4 4 4 3 3 3 3 3 3 3 3 3 3 3 3
3 4 2 2 3 1 2 2 4 5 5 6 5 6 3 2 2 1 0 1 2 2 1 1 0 1 2 3 3 3 4 4 3 2 3 2 3 3 3 3 3 3 3 3
4 5 3 3 4 4 3 4 4 5 5 6 6 3 0 2 2 2 1 1 1 2 1 1 1 1 1 2 2 3 4 3 3 3 3 2 3 3 4 4 4 4 3 3
3 4 5 4 1 2 4 4 5 6 6 6 7 4 2 0 1 2 2 1 1 1 1 2 1 2 1 1 2 3 3 3 3 3 3 3 3 3 4 4 4 4 4 4
3 4 5 5 5 4 4 4 5 5 6 7 8 4 2 1 2 2 2 1 1 1 1 1 1 1 1 0 1 2 3 3 3 3 4 4 4 4 4 4 5 5 5 5
3 6 8 8 5 4 6 6 7 8 8 9 11 9 4 4 4 3 2 2 1 1 0 1 1 1 1 1 1 2 2 3 3 4 4 5 5 5 5 5 5 5 6 6
3 6 7 8 6 6 8 9 10 12 12 12 12 10 8 6 5 4 3 2 2 2 2 2 2 2 2 2 2 3 3 3 3 4 4 5 5 5 5 5 5 5 6 6
3 5 6 7 6 7 10 11 11 12 11 12 12 10 7 5 4 3 2 2 2 3 3 2 3 2 3 3 3 4 4 3 3 4 5 4 5 5 5 6 6 6 6 6
4 5 6 7 6 7 9 9 10 9 8 8 9 7 3 3 3 3 3 3 3 3 3 3 3 4 4 4 4 4 4 4 4 4 5 5 5 5 5 6 6 6 7 6
6 6 5 6 6 9 3 2 3 6 6 7 7 5 4 4 4 3 3 3 3 3 3 4 4 4 4 4 4 4 4 4 4 5 5 5 5 6 5 6 6 7 6 6
7 6 5 5 8 9 5 3 3 5 6 4 5 4 3 2 3 3 2 3 3 4 4 4 4 4 4 4 4 4 4 4 4 5 5 5 5 6 6 6 6 6 6 6
4 7 6 6 7 6 2 1 1 4 5 1 2 2 1 2 4 3 3 4 4 4 4 4 4 4 4 4 4 4 4 4 5 5 5 5 5 5 6 6 6 5 5 6
5 6 9 10 9 6 2 1 3 5 2 1 1 2 2 4 4 4 3 4 4 4 5 5 4 4 4 4 4 4 5 5 5 5 5 5 5 5 5 5 5 5 5 5
7 6 7 7 8 6 2 3 3 2 3 1 2 2 3 3 3 3 3 4 4 5 5 5 5 4 5 5 4 5 5 5 5 5 5 5 5 5 4 5 5 5 5 5
6 5 4 5 4 2 2 2 2 2 2 2 2 2 2 3 3 4 4 4 4 5 5 5 5 5 5 5 5 5 5 5 5 5 5 5 5 5 5 5 5 5 5 5
5 3 5 6 6 4 3 3 3 3 3 3 2 2 2 3 3 4 4 4 5 5 5 5 5 5 6 6 6 5 6 6 5 5 5 5 5 5 5 5 4 4 5 5
5 4 6 8 7 5 5 4 4 3 2 2 3 3 3 3 4 4 4 4 5 5 5 5 5 6 7 6 6 6 5 5 5 5 5 5 5 6 5 5 4 5 5 5
7 8 8 8 7 7 6 4 4 4 4 3 3 3 3 3 4 4 4 4 5 5 6 6 6 7 7 6 6 6 6 6 6 5 5 5 5 5 4 4 4 3 4 4
Wind_Direction
176 192 188 189 232 236 203 214 235 266 278 271 268 271 267 244 227 228 220 209 205 203 193 183 189 189 184 182 184 176 175 172 166 167 177 180 178 180 158 133 103 107 96 90
181 190 186 166 175 189 204 219 237 252 276 274 283 282 275 251 230 230 228 217 211 204 194 181 188 191 193 187 193 187 186 179 175 185 193 196 196 204 168 155 140 128 142 132
197 151 150 176 181 203 218 239 260 279 286 247 273 262 230 203 210 212 226 231 218 210 201 186 189 193 192 193 189 190 187 181 182 183 184 178 171 202 195 194 183 185 177 192
197 158 184 207 211 234 244 274 264 260 264 268 267 281 256 228 211 206 217 226 221 215 208 198 192 191 192 195 193 191 182 179 184 181 193 203 215 230 244 233 201 200 192 205
189 188 205 219 229 242 281 286 253 256 264 265 252 262 249 201 226 233 218 220 222 217 213 207 201 198 194 192 189 187 187 184 187 196 206 232 243 245 245 252 235 237 217 221
211 202 243 251 256 225 195 212 218 230 246 250 254 261 255 218 276 295 306 243 218 213 211 209 205 197 190 183 183 188 195 195 197 207 214 228 240 244 245 251 259 247 226 228
202 195 191 211 218 196 228 251 247 231 230 245 212 257 255 39 359 323 323 332 319 212 202 197 199 197 192 184 184 187 191 196 199 213 225 233 240 244 244 247 249 259 246 229
223 209 195 228 249 243 231 254 264 269 267 269 238 244 227 44 353 332 333 16 46 84 199 197 197 200 197 191 192 191 193 200 202 212 234 241 233 238 246 244 247 246 259 254
236 223 147 167 275 245 223 237 280 277 275 267 238 232 232 136 333 354 26 55 53 51 81 204 206 202 201 200 203 200 195 199 206 217 231 244 239 236 240 243 246 246 255 267
260 247 198 176 179 95 278 213 231 251 262 258 249 245 241 213 252 262 336 25 34 45 59 70 109 202 208 207 211 207 202 202 204 219 231 240 248 242 239 241 242 248 252 252
251 243 213 202 227 228 188 205 237 254 261 269 269 259 38 262 242 248 277 355 20 29 46 56 82 141 173 191 202 202 206 213 222 229 236 239 241 249 241 239 244 250 254 247
240 255 246 236 204 267 244 236 230 253 256 254 271 276 85 324 288 283 292 326 4 11 44 53 73 98 122 171 215 216 215 222 231 236 239 240 244 248 247 244 245 248 251 252
213 241 249 223 193 196 223 223 230 251 262 253 257 260 94 353 317 302 295 308 350 4 35 60 82 90 76 356 269 245 234 237 239 240 241 241 244 251 251 249 246 247 248 250
254 247 254 262 283 247 237 237 234 240 253 259 258 272 286 292 296 299 296 297 301 303 315 19 20 13 358 334 301 288 272 256 251 247 248 249 250 252 252 251 249 247 247 248
253 262 261 270 277 262 259 257 245 244 255 263 272 273 284 288 291 294 288 298 311 312 303 321 334 339 333 325 317 306 294 283 265 258 260 259 260 259 259 254 250 247 245 247
243 260 262 258 257 258 264 262 252 248 254 259 267 273 291 295 295 299 295 297 300 303 303 312 318 322 319 317 318 317 310 298 281 269 270 271 265 262 261 258 253 249 246 245
229 246 258 262 265 269 261 255 242 240 244 255 262 275 293 296 289 292 296 293 296 306 314 308 309 315 316 317 316 311 309 301 287 280 277 273 268 263 262 262 257 250 247 246
235 240 255 267 260 252 271 51 244 242 252 263 272 279 275 292 292 285 299 294 296 312 321 322 319 317 317 316 315 314 311 302 297 292 284 277 269 263 264 262 260 254 250 247
234 231 240 250 257 265 260 246 237 242 255 262 261 270 285 312 286 270 320 314 309 312 317 322 320 316 314 315 315 313 314 314 308 302 297 285 274 269 265 264 263 261 256 253
198 221 234 238 252 262 275 103 240 253 251 240 251 260 259 258 274 297 340 322 321 324 322 321 320 317 314 314 311 306 306 308 307 306 302 298 285 272 265 263 264 264 259 258
192 208 226 238 249 261 308 125 189 233 314 69 248 256 235 265 303 323 316 313 319 322 321 318 315 315 317 315 305 301 305 305 306 304 302 300 296 283 272 270 267 264 263 263
224 222 223 230 240 251 127 166 218 318 12 349 309 291 276 302 320 312 311 312 316 318 321 319 311 311 314 310 300 298 302 307 307 302 300 301 300 295 283 277 273 269 265 264
232 243 246 231 249 14 174 230 314 323 301 305 301 300 286 291 298 299 302 306 310 311 313 316 310 308 309 306 298 295 300 303 301 298 301 303 300 297 287 279 274 274 269 265
230 245 245 249 253 261 258 262 275 281 285 294 288 279 270 282 286 288 293 300 306 307 308 310 305 303 307 310 305 299 301 298 294 296 298 296 294 294 290 281 272 264 263 262
248 221 241 252 262 270 254 259 265 273 281 283 285 281 277 276 279 286 292 298 304 305 305 306 303 303 305 308 308 307 304 299 294 296 298 296 293 291 288 276 270 263 263 266
233 233 244 260 264 265 270 272 273 268 267 268 277 289 286 274 277 286 291 297 301 304 309 310 309 304 303 307 308 307 303 297 295 298 300 299 297 295 292 286 283 279 260 269
Height
1524 1523 1523 1523 1524 1524 1525 1528 1530 1529 1529 1529 1527 1526 1526 1528 1530 1530 1531 1532 1534 1535 1537 1538 1539 1539 1540 1541 1541 1542 1542 1543 1543 1544 1544 1545 1545 1545 1545 1545 1545 1545 1545 1545
1523 1524 1524 1525 1525 1526 1526 1529 1529 1528 1528 1528 1526 1525 1523 1526 1527 1529 1529 1530 1532 1533 1536 1537 1537 1538 1539 1540 1541 1542 1542 1543 1543 1543 1544 1544 1545 1545 1545 1545 1545 1545 1545 1545
1522 1524 1526 1526 1526 1526 1526 1528 1528 1530 1528 1526 1527 1525 1522 1523 1526 1528 1529 1529 1530 1532 1533 1535 1536 1537 1538 1539 1540 1541 1541 1542 1542 1543 1543 1544 1544 1544 1544 1544 1544 1544 1544 1544
1523 1525 1526 1526 1525 1526 1528 1525 1527 1528 1528 1527 1527 1530 1521 1520 1522 1525 1527 1528 1528 1530 1531 1533 1534 1535 1536 1538 1539 1540 1540 1541 1542 1542 1542 1543 1543 1543 1543 1543 1543 1543 1543 1543
1524 1525 1525 1526 1525 1526 1526 1527 1526 1526 1526 1526 1524 1526 1521 1518 1521 1522 1524 1526 1527 1528 1529 1531 1532 1533 1535 1536 1537 1538 1539 1540 1540 1541 1541 1542 1542 1542 1542 1542 1542 1542 1542 1541
1524 1526 1526 1525 1526 1527 1527 1527 1526 1525 1524 1530 1525 1526 1524 1517 1520 1521 1523 1524 1525 1526 1527 1529 1530 1532 1533 1534 1535 1536 1537 1538 1538 1539 1540 1540 1540 1540 1540 1540 1540 1540 1540 1539
1525 1524 1525 1526 1526 1526 1526 1527 1532 1532 1531 1528 1523 1525 1522 1518 1520 1522 1523 1524 1524 1524 1525 1526 1528 1529 1530 1531 1532 1533 1535 1535 1536 1537 1538 1538 1538 1538 1538 1538 1538 1538 1538 1538
1526 1526 1523 1524 1524 1524 1524 1525 1534 1539 1534 1526 1523 1523 1518 1520 1522 1523 1523 1523 1523 1524 1524 1525 1526 1527 1528 1529 1530 1531 1532 1533 1534 1534 1535 1536 1536 1536 1536 1536 1536 1536 1536 1536
1523 1525 1523 1525 1525 1523 1524 1524 1524 1528 1528 1529 1521 1518 1517 1519 1520 1521 1522 1523 1523 1523 1523 1523 1524 1524 1525 1526 1527 1528 1529 1530 1531 1531 1532 1533 1533 1533 1533 1533 1533 1533 1533 1533
1522 1525 1523 1525 1525 1526 1524 1523 1527 1529 1534 1532 1523 1519 1517 1517 1518 1520 1521 1521 1522 1522 1522 1522 1522 1522 1523 1524 1525 1526 1527 1528 1528 1529 1529 1530 1530 1530 1530 1530 1530 1530 1530 1530
1523 1524 1524 1524 1523 1523 1526 1527 1525 1525 1526 1530 1529 1521 1513 1515 1517 1519 1520 1521 1521 1521 1521 1521 1521 1521 1521 1522 1522 1523 1524 1525 1526 1526 1526 1527 1527 1527 1527 1527 1527 1527 1527 1527
1525 1522 1522 1522 1523 1524 1523 1522 1523 1529 1527 1525 1525 1522 1514 1516 1518 1519 1520 1520 1521 1520 1520 1520 1519 1519 1519 1520 1520 1521 1521 1522 1522 1523 1523 1523 1524 1524 1524 1524 1524 1524 1524 1524
1526 1524 1526 1524 1526 1525 1523 1523 1523 1523 1524 1523 1525 1520 1515 1517 1518 1519 1520 1520 1520 1520 1519 1519 1518 1518 1518 1518 1518 1518 1518 1518 1519 1519 1519 1520 1520 1520 1520 1520 1520 1520 1520 1520
1526 1521 1523 1525 1520 1519 1522 1523 1522 1522 1523 1519 1517 1514 1515 1516 1517 1518 1519 1519 1519 1519 1518 1518 1517 1517 1516 1516 1516 1515 1515 1515 1515 1515 1516 1516 1516 1516 1516 1516 1516 1516 1516 1516
1525 1522 1519 1519 1520 1521 1520 1520 1520 1520 1517 1517 1512 1513 1513 1514 1516 1517 1517 1518 1517 1517 1517 1516 1516 1515 1514 1514 1513 1513 1512 1512 1512 1512 1512 1512 1512 1512 1512 1512 1512 1512 1512 1512
1524 1522 1521 1521 1520 1520 1520 1517 1517 1517 1516 1515 1513 1513 1512 1515 1516 1516 1516 1516 1516 1516 1515 1515 1514 1513 1513 1512 1511 1510 1509 1508 1508 1508 1507 1507 1507 1507 1507 1507 1507 1507 1507 1507
1522 1522 1523 1519 1519 1520 1518 1511 1513 1513 1513 1513 1512 1511 1513 1514 1515 1515 1515 1515 1515 1514 1514 1513 1513 1512 1511 1510 1509 1507 1506 1505 1505 1504 1503 1503 1503 1503 1503 1503 1502 1502 1502 1502
1521 1520 1520 1519 1521 1524 1511 1510 1511 1512 1512 1512 1512 1512 1514 1515 1515 1515 1514 1514 1514 1513 1512 1511 1510 1510 1509 1507 1506 1505 1504 1502 1501 1500 1499 1499 1499 1498 1498 1498 1498 1498 1498 1498
1520 1520 1520 1520 1518 1512 1509 1509 1511 1511 1510 1510 1511 1512 1514 1514 1514 1513 1513 1513 1513 1512 1511 1510 1509 1507 1506 1504 1503 1502 1501 1500 1498 1497 1496 1495 1495 1494 1494 1493 1493 1493 1493 1492
1521 1520 1519 1519 1520 1516 1507 1509 1511 1511 1509 1510 1511 1511 1512 1513 1510 1510 1512 1511 1511 1510 1509 1508 1506 1505 1503 1502 1501 1499 1498 1497 1495 1494 1492 1491 1491 1490 1489 1489 1489 1488 1488 1488
1517 1518 1518 1515 1515 1507 1507 1510 1511 1513 1508 1510 1510 1511 1511 1511 1511 1512 1511 1510 1509 1508 1506 1505 1504 1503 1501 1499 1498 1497 1495 1494 1492 1490 1489 1488 1487 1486 1485 1485 1484 1484 1483 1483
1509 1512 1512 1512 1513 1510 1509 1510 1509 1508 1509 1509 1510 1510 1511 1511 1510 1510 1509 1508 1507 1505 1504 1503 1501 1500 1499 1497 1496 1494 1492 1491 1489 1487 1486 1484 1483 1482 1481 1481 1480 1480 1479 1479
1508 1507 1505 1506 1507 1507 1508 1508 1509 1509 1509 1509 1509 1509 1509 1509 1509 1508 1507 1506 1505 1504 1502 1500 1499 1497 1496 1494 1493 1491 1489 1487 1485 1484 1482 1481 1480 1478 1477 1477 1476 1475 1475 1474
1507 1511 1509 1506 1504 1507 1508 1508 1508 1508 1508 1508 1508 1508 1507 1507 1506 1506 1505 1504 1503 1501 1500 1498 1496 1494 1493 1491 1490 1488 1486 1484 1482 1481 1479 1477 1476 1474 1473 1472 1471 1471 1470 1470
1506 1508 1506 1503 1504 1505 1506 1506 1507 1507 1506 1506 1506 1506 1505 1505 1504 1503 1502 1501 1500 1499 1497 1496 1494 1492 1490 1488 1486 1484 1483 1481 1479 1477 1476 1474 1472 1470 1468 1466 1466 1466 1466 1465
1505 1504 1503 1500 1501 1502 1503 1503 1504 1504 1504 1504 1504 1503 1503 1502 1501 1501 1500 1499 1497 1496 1495 1493 1491 1489 1487 1485 1483 1481 1480 1478 1476 1474 1472 1470 1468 1465 1463 1462 1462 1461 1461 1461